TimeCDT,TemperatureF,Dew PointF,Humidity,Sea Level PressureIn,VisibilityMPH,Wind Direction,Wind SpeedMPH,Gust SpeedMPH,PrecipitationIn,Events,Conditions,WindDirDegrees,DateUTC
12:53 AM,62.6,51.8,68,30.06,10.0,SE,5.8,-,N/A,,Clear,140,2011-10-21 05:53:00
1:53 AM,60.1,51.1,72,30.02,10.0,SE,3.5,-,N/A,,Clear,130,2011-10-21 06:53:00
2:53 AM,62.1,53.1,72,30.02,10.0,SSE,3.5,-,N/A,,Clear,160,2011-10-21 07:53:00
3:53 AM,59.0,51.8,77,30.06,10.0,Calm,Calm,-,N/A,,Clear,0,2011-10-21 08:53:00
4:53 AM,57.9,52.0,81,30.02,10.0,Calm,Calm,-,N/A,,Clear,0,2011-10-21 09:53:00
5:53 AM,57.0,52.0,83,30.03,10.0,Calm,Calm,-,N/A,,Clear,0,2011-10-21 10:53:00
6:53 AM,57.2,51.8,82,30.09,10.0,Calm,Calm,-,N/A,,Clear,0,2011-10-21 11:53:00
7:53 AM,57.9,52.0,81,30.07,10.0,Calm,Calm,-,N/A,,Clear,0,2011-10-21 12:53:00
8:53 AM,63.0,55.0,75,30.09,10.0,Calm,Calm,-,N/A,,Clear,0,2011-10-21 13:53:00
9:53 AM,69.1,57.9,68,30.11,10.0,SSE,6.9,-,N/A,,Clear,150,2011-10-21 14:53:00
10:53 AM,73.9,61.0,64,30.10,10.0,South,13.8,21.9,N/A,,Clear,180,2011-10-21 15:53:00
11:53 AM,78.1,62.1,58,30.10,10.0,SSE,15.0,20.7,N/A,,Partly Cloudy,160,2011-10-21 16:53:00
12:53 PM,80.1,61.0,52,30.08,10.0,South,11.5,-,N/A,,Partly Cloudy,180,2011-10-21 17:53:00
1:53 PM,82.0,61.0,49,30.05,10.0,South,10.4,-,N/A,,Partly Cloudy,180,2011-10-21 18:53:00
2:53 PM,82.9,61.0,47,30.02,10.0,SSE,10.4,-,N/A,,Partly Cloudy,160,2011-10-21 19:53:00
3:53 PM,84.0,59.0,43,30.01,10.0,SSE,9.2,-,N/A,,Partly Cloudy,160,2011-10-21 20:53:00
4:53 PM,84.9,59.0,41,30.00,10.0,SSE,10.4,-,N/A,,Partly Cloudy,160,2011-10-21 21:53:00
5:53 PM,84.0,57.0,40,29.99,10.0,South,11.5,-,N/A,,Clear,170,2011-10-21 22:53:00
6:53 PM,81.0,57.9,45,30.00,10.0,South,9.2,-,N/A,,Clear,170,2011-10-21 23:53:00
7:53 PM,79.0,60.1,52,30.01,10.0,SSE,11.5,-,N/A,,Clear,150,2011-10-22 00:53:00
8:53 PM,77.0,61.0,58,30.02,10.0,SSE,10.4,-,N/A,,Clear,150,2011-10-22 01:53:00
9:53 PM,73.9,62.1,66,30.04,10.0,SSE,16.1,23.0,N/A,,Clear,150,2011-10-22 02:53:00
10:53 PM,73.0,62.1,68,30.05,10.0,SSE,11.5,-,N/A,,Clear,160,2011-10-22 03:53:00
11:53 PM,71.1,63.0,75,30.04,10.0,SSE,9.2,-,N/A,,Clear,160,2011-10-22 04:53:00